When you browse on this site, cookies collect data to enhance your experience and personalize the content and advertising you see.
Visit our Privacy Policy to learn more. By continuing to use the site, you agree to this use of cookies and data.
  • In Hungary
  • List of Countries
  • For 7 days
  • Water Temperature
  • Weather Map
  • News
  • Weather Widgets
  • user-avatar
    Login

    Hourly Weather Dalnevo

    Today, 14 October, Monday

    Time Temperature Precipitation Wind Pressure Humidity
    00:00 +7°C° 0 mm 3 mps 757 mmHg 95%
    01:00 +6°C° 0 mm 2 mps 758 mmHg 95%
    02:00 +6°C° 0 mm 2 mps 758 mmHg 96%
    03:00 +6°C° 0.1 mm 2 mps 757 mmHg 95%
    04:00 +7°C° 0.1 mm 2 mps 757 mmHg 95%
    05:00 +7°C° 0.1 mm 2 mps 756 mmHg 94%
    06:00 +7°C° 1.7 mm 3 mps 755 mmHg 95%
    07:00 +6°C° 1.7 mm 4 mps 755 mmHg 95%
    08:00 +6°C° 0 mm 5 mps 754 mmHg 94%
    09:00 +7°C° 1.1 mm 5 mps 753 mmHg 95%
    10:00 +7°C° 1.1 mm 4 mps 751 mmHg 95%
    11:00 +8°C° 1.1 mm 4 mps 750 mmHg 95%
    12:00 +11°C° 0.8 mm 4 mps 750 mmHg 93%
    13:00 +13°C° 0.8 mm 5 mps 749 mmHg 91%
    14:00 +14°C° 0.8 mm 5 mps 749 mmHg 89%
    15:00 +14°C° 0.2 mm 5 mps 749 mmHg 87%
    16:00 +13°C° 0.2 mm 5 mps 749 mmHg 85%
    17:00 +13°C° 0.2 mm 6 mps 749 mmHg 83%
    18:00 +11°C° 0.1 mm 6 mps 750 mmHg 85%
    19:00 +12°C° 0.1 mm 5 mps 751 mmHg 86%
    20:00 +12°C° 0.1 mm 5 mps 752 mmHg 88%
    21:00 +10°C° 0.1 mm 5 mps 753 mmHg 88%
    22:00 +8°C° 0.1 mm 5 mps 754 mmHg 89%
    23:00 +7°C° 0.1 mm 5 mps 755 mmHg 90%

    Tomorrow, 15 October, Tuesday

    Time Temperature Precipitation Wind Pressure Humidity
    00:00 +7°C° 0 mm 5 mps 756 mmHg 89%
    01:00 +6°C° 0 mm 5 mps 757 mmHg 88%
    02:00 +6°C° 0 mm 4 mps 759 mmHg 87%
    03:00 +6°C° 0 mm 4 mps 759 mmHg 87%
    04:00 +5°C° 0 mm 3 mps 760 mmHg 87%
    05:00 +5°C° 0 mm 3 mps 761 mmHg 87%
    06:00 +5°C° 0 mm 3 mps 762 mmHg 87%
    07:00 +5°C° 0 mm 2 mps 762 mmHg 86%
    08:00 +5°C° 0 mm 2 mps 763 mmHg 86%
    09:00 +6°C° 0 mm 2 mps 763 mmHg 81%
    10:00 +7°C° 0 mm 2 mps 764 mmHg 76%
    11:00 +9°C° 0 mm 1 mps 764 mmHg 71%
    12:00 +8°C° 0 mm 2 mps 764 mmHg 69%
    13:00 +8°C° 0 mm 2 mps 764 mmHg 67%
    14:00 +9°C° 0 mm 2 mps 764 mmHg 65%
    15:00 +8°C° 0 mm 2 mps 764 mmHg 69%
    16:00 +7°C° 0 mm 2 mps 764 mmHg 74%
    17:00 +5°C° 0 mm 3 mps 764 mmHg 78%
    18:00 +5°C° 0 mm 3 mps 764 mmHg 77%
    19:00 +5°C° 0 mm 4 mps 764 mmHg 77%
    20:00 +5°C° 0 mm 4 mps 764 mmHg 77%
    21:00 +5°C° 0 mm 4 mps 764 mmHg 76%
    22:00 +5°C° 0 mm 5 mps 764 mmHg 75%
    23:00 +5°C° 0 mm 5 mps 763 mmHg 74%

    Day after tomorrow, 16 October, Wednesday

    Time Temperature Precipitation Wind Pressure Humidity
    00:00 +5°C° 0 mm 5 mps 763 mmHg 76%
    01:00 +5°C° 0 mm 5 mps 763 mmHg 77%
    02:00 +5°C° 0 mm 5 mps 763 mmHg 78%
    03:00 +5°C° 0 mm 5 mps 762 mmHg 80%
    04:00 +4°C° 0 mm 6 mps 761 mmHg 82%
    05:00 +4°C° 0 mm 6 mps 760 mmHg 83%
    06:00 +4°C° 0 mm 6 mps 760 mmHg 85%
    07:00 +5°C° 0 mm 6 mps 759 mmHg 86%
    08:00 +5°C° 0 mm 6 mps 759 mmHg 87%
    09:00 +7°C° 0 mm 6 mps 758 mmHg 85%
    10:00 +8°C° 0 mm 6 mps 757 mmHg 84%
    11:00 +9°C° 0 mm 6 mps 757 mmHg 82%
    12:00 +10°C° 0 mm 5 mps 756 mmHg 80%
    13:00 +12°C° 0 mm 5 mps 756 mmHg 78%
    14:00 +13°C° 0 mm 5 mps 755 mmHg 76%
    15:00 +13°C° 0 mm 4 mps 755 mmHg 80%
    16:00 +12°C° 0 mm 4 mps 754 mmHg 85%
    17:00 +12°C° 0 mm 3 mps 754 mmHg 89%
    18:00 +11°C° 0 mm 3 mps 753 mmHg 90%
    19:00 +11°C° 0 mm 3 mps 753 mmHg 92%
    20:00 +11°C° 0 mm 3 mps 753 mmHg 93%
    21:00 +11°C° 0 mm 3 mps 753 mmHg 93%
    22:00 +11°C° 0 mm 3 mps 752 mmHg 94%
    23:00 +11°C° 0 mm 3 mps 752 mmHg 95%

    17 October, Thursday

    Time Temperature Precipitation Wind Pressure Humidity
    00:00 +11°C° 0.1 mm 3 mps 752 mmHg 95%
    01:00 +12°C° 0.1 mm 3 mps 753 mmHg 95%
    02:00 +12°C° 0.1 mm 3 mps 753 mmHg 96%
    03:00 +12°C° 0.2 mm 3 mps 753 mmHg 94%
    04:00 +12°C° 0.2 mm 4 mps 753 mmHg 92%
    05:00 +12°C° 0.2 mm 4 mps 753 mmHg 91%
    06:00 +11°C° 0 mm 4 mps 753 mmHg 91%
    07:00 +10°C° 0 mm 3 mps 753 mmHg 91%
    08:00 +10°C° 0 mm 3 mps 753 mmHg 91%
    09:00 +12°C° 0 mm 2 mps 754 mmHg 86%
    10:00 +13°C° 0 mm 2 mps 754 mmHg 82%
    11:00 +14°C° 0 mm 2 mps 754 mmHg 78%
    12:00 +14°C° 0 mm 1 mps 755 mmHg 76%
    13:00 +14°C° 0 mm 1 mps 755 mmHg 74%
    14:00 +14°C° 0 mm 1 mps 755 mmHg 72%
    15:00 +13°C° 0 mm 1 mps 756 mmHg 79%
    16:00 +12°C° 0 mm 2 mps 756 mmHg 85%
    17:00 +10°C° 0 mm 2 mps 757 mmHg 92%
    18:00 +9°C° 0 mm 2 mps 757 mmHg 93%
    19:00 +10°C° 0 mm 1 mps 758 mmHg 95%
    20:00 +9°C° 0 mm 1 mps 759 mmHg 97%
    21:00 +9°C° 0 mm 1 mps 759 mmHg 96%
    22:00 +9°C° 0 mm 1 mps 759 mmHg 96%
    23:00 +9°C° 0 mm 1 mps 760 mmHg 95%

    18 October, Friday

    Time Temperature Precipitation Wind Pressure Humidity
    00:00 +9°C° 0 mm 1 mps 760 mmHg 95%
    01:00 +9°C° 0 mm 1 mps 760 mmHg 95%
    02:00 +9°C° 0 mm 1 mps 761 mmHg 95%
    03:00 +9°C° 0 mm 1 mps 761 mmHg 95%
    04:00 +8°C° 0 mm 2 mps 761 mmHg 95%
    05:00 +8°C° 0 mm 2 mps 761 mmHg 95%
    06:00 +8°C° 0 mm 3 mps 761 mmHg 94%
    07:00 +9°C° 0 mm 3 mps 761 mmHg 94%
    08:00 +9°C° 0 mm 3 mps 761 mmHg 93%
    09:00 +9°C° 0.4 mm 3 mps 761 mmHg 93%
    10:00 +8°C° 0.4 mm 4 mps 761 mmHg 93%
    11:00 +8°C° 0.4 mm 4 mps 761 mmHg 93%
    12:00 +8°C° 0.6 mm 4 mps 761 mmHg 94%
    13:00 +8°C° 0.6 mm 4 mps 761 mmHg 94%
    14:00 +8°C° 0.6 mm 4 mps 761 mmHg 94%
    15:00 +8°C° 0.4 mm 4 mps 761 mmHg 95%
    16:00 +9°C° 0.4 mm 3 mps 760 mmHg 96%
    17:00 +9°C° 0.4 mm 3 mps 760 mmHg 96%
    18:00 +10°C° 0.2 mm 3 mps 760 mmHg 96%
    19:00 +10°C° 0.2 mm 3 mps 760 mmHg 96%
    20:00 +10°C° 0.2 mm 3 mps 761 mmHg 96%
    21:00 +10°C° 0 mm 3 mps 761 mmHg 97%
    22:00 +10°C° 0 mm 3 mps 761 mmHg 97%
    23:00 +10°C° 0 mm 3 mps 761 mmHg 97%

    19 October, Saturday

    Time Temperature Precipitation Wind Pressure Humidity
    00:00 +10°C° 0 mm 3 mps 761 mmHg 96%
    01:00 +10°C° 0 mm 3 mps 761 mmHg 96%
    02:00 +10°C° 0 mm 2 mps 761 mmHg 96%
    03:00 +9°C° 0 mm 2 mps 761 mmHg 96%
    04:00 +8°C° 0 mm 2 mps 761 mmHg 96%
    05:00 +8°C° 0 mm 2 mps 761 mmHg 95%
    06:00 +8°C° 0 mm 2 mps 761 mmHg 94%
    07:00 +8°C° 0 mm 2 mps 761 mmHg 93%
    08:00 +9°C° 0 mm 2 mps 762 mmHg 92%
    09:00 +10°C° 0 mm 2 mps 762 mmHg 90%
    10:00 +12°C° 0 mm 2 mps 762 mmHg 88%
    11:00 +13°C° 0 mm 2 mps 762 mmHg 86%
    12:00 +13°C° 0 mm 2 mps 762 mmHg 84%
    13:00 +14°C° 0 mm 1 mps 762 mmHg 82%
    14:00 +14°C° 0 mm 1 mps 762 mmHg 81%
    15:00 +13°C° 0 mm 1 mps 762 mmHg 85%
    16:00 +12°C° 0 mm 1 mps 762 mmHg 89%
    17:00 +12°C° 0 mm 1 mps 762 mmHg 94%
    18:00 +11°C° 0 mm 1 mps 762 mmHg 94%
    19:00 +11°C° 0 mm 1 mps 762 mmHg 95%
    20:00 +10°C° 0 mm 2 mps 762 mmHg 95%
    21:00 +10°C° 0 mm 2 mps 762 mmHg 96%
    22:00 +10°C° 0 mm 2 mps 762 mmHg 96%
    23:00 +10°C° 0 mm 2 mps 761 mmHg 96%
    Show more